When you browse on this site, cookies collect data to enhance your experience and personalize the content and advertising you see.
Visit our Privacy Policy to learn more. By continuing to use the site, you agree to this use of cookies and data.
  • In France
  • List of Countries
  • For 7 days
  • Water Temperature
  • Weather Map
  • Weather Widgets
  • user-avatar
    Login

    Hourly Weather Ropotamo

    Today, 16 September, Monday

    Time Temperature Precipitation Wind Pressure Humidity
    00:00 +15°C° 0 mm 1 mps 763 mmHg 84%
    01:00 +15°C° 0 mm 1 mps 762 mmHg 85%
    02:00 +15°C° 0 mm 1 mps 762 mmHg 88%
    03:00 +15°C° 0 mm 2 mps 762 mmHg 89%
    04:00 +14°C° 0 mm 2 mps 761 mmHg 90%
    05:00 +14°C° 0 mm 2 mps 761 mmHg 90%
    06:00 +16°C° 0 mm 2 mps 761 mmHg 82%
    07:00 +18°C° 0 mm 2 mps 761 mmHg 74%
    08:00 +20°C° 0 mm 2 mps 761 mmHg 65%
    09:00 +23°C° 0 mm 2 mps 761 mmHg 56%
    10:00 +25°C° 0 mm 2 mps 760 mmHg 46%
    11:00 +27°C° 0 mm 1 mps 760 mmHg 37%
    12:00 +28°C° 0 mm 2 mps 759 mmHg 36%
    13:00 +28°C° 0 mm 2 mps 759 mmHg 35%
    14:00 +28°C° 0 mm 3 mps 758 mmHg 34%
    15:00 +27°C° 0 mm 3 mps 758 mmHg 37%
    16:00 +26°C° 0 mm 4 mps 758 mmHg 41%
    17:00 +25°C° 0 mm 4 mps 757 mmHg 44%
    18:00 +22°C° 0 mm 4 mps 757 mmHg 49%
    19:00 +20°C° 0 mm 3 mps 758 mmHg 55%
    20:00 +18°C° 0 mm 3 mps 758 mmHg 60%
    21:00 +18°C° 0 mm 3 mps 758 mmHg 59%
    22:00 +18°C° 0 mm 2 mps 757 mmHg 58%
    23:00 +18°C° 0 mm 2 mps 757 mmHg 56%

    Tomorrow, 17 September, Tuesday

    Time Temperature Precipitation Wind Pressure Humidity
    00:00 +17°C° 0 mm 2 mps 757 mmHg 56%
    01:00 +17°C° 0 mm 2 mps 757 mmHg 56%
    02:00 +17°C° 0 mm 3 mps 757 mmHg 56%
    03:00 +17°C° 0 mm 3 mps 757 mmHg 55%
    04:00 +17°C° 0 mm 3 mps 757 mmHg 54%
    05:00 +17°C° 0 mm 3 mps 756 mmHg 53%
    06:00 +19°C° 0 mm 3 mps 757 mmHg 48%
    07:00 +22°C° 0 mm 3 mps 757 mmHg 43%
    08:00 +25°C° 0 mm 3 mps 757 mmHg 39%
    09:00 +27°C° 0 mm 3 mps 757 mmHg 33%
    10:00 +30°C° 0 mm 3 mps 757 mmHg 28%
    11:00 +32°C° 0 mm 2 mps 757 mmHg 23%
    12:00 +34°C° 0 mm 3 mps 756 mmHg 22%
    13:00 +34°C° 0 mm 3 mps 756 mmHg 21%
    14:00 +35°C° 0 mm 4 mps 756 mmHg 20%
    15:00 +34°C° 0 mm 4 mps 755 mmHg 23%
    16:00 +33°C° 0 mm 4 mps 755 mmHg 25%
    17:00 +32°C° 0 mm 4 mps 754 mmHg 28%
    18:00 +29°C° 0 mm 4 mps 755 mmHg 31%
    19:00 +26°C° 0 mm 4 mps 755 mmHg 34%
    20:00 +23°C° 0 mm 4 mps 755 mmHg 38%
    21:00 +23°C° 0 mm 4 mps 755 mmHg 38%
    22:00 +25°C° 0 mm 4 mps 755 mmHg 38%
    23:00 +25°C° 0 mm 4 mps 755 mmHg 39%

    Day after tomorrow, 18 September, Wednesday

    Time Temperature Precipitation Wind Pressure Humidity
    00:00 +25°C° 0 mm 4 mps 755 mmHg 39%
    01:00 +25°C° 0 mm 4 mps 755 mmHg 39%
    02:00 +23°C° 0 mm 4 mps 755 mmHg 39%
    03:00 +24°C° 0 mm 3 mps 754 mmHg 41%
    04:00 +24°C° 0 mm 3 mps 754 mmHg 42%
    05:00 +22°C° 0 mm 3 mps 754 mmHg 44%
    06:00 +25°C° 0 mm 3 mps 754 mmHg 41%
    07:00 +26°C° 0 mm 3 mps 755 mmHg 39%
    08:00 +28°C° 0 mm 3 mps 755 mmHg 36%
    09:00 +30°C° 0 mm 3 mps 755 mmHg 32%
    10:00 +33°C° 0 mm 3 mps 755 mmHg 27%
    11:00 +36°C° 0 mm 4 mps 755 mmHg 22%
    12:00 +36°C° 0 mm 4 mps 755 mmHg 22%
    13:00 +36°C° 0 mm 4 mps 755 mmHg 21%
    14:00 +37°C° 0 mm 5 mps 755 mmHg 20%
    15:00 +33°C° 0 mm 6 mps 756 mmHg 34%
    16:00 +28°C° 0 mm 8 mps 756 mmHg 48%
    17:00 +23°C° 0 mm 9 mps 757 mmHg 62%
    18:00 +22°C° 0 mm 9 mps 758 mmHg 66%
    19:00 +21°C° 0 mm 8 mps 759 mmHg 70%
    20:00 +20°C° 0 mm 7 mps 760 mmHg 74%
    21:00 +19°C° 0 mm 6 mps 760 mmHg 76%
    22:00 +19°C° 0 mm 6 mps 760 mmHg 78%
    23:00 +19°C° 0 mm 5 mps 761 mmHg 80%

    19 September, Thursday

    Time Temperature Precipitation Wind Pressure Humidity
    00:00 +17°C° 0 mm 5 mps 761 mmHg 79%
    01:00 +18°C° 0 mm 4 mps 761 mmHg 77%
    02:00 +18°C° 0 mm 4 mps 761 mmHg 76%
    03:00 +18°C° 0 mm 4 mps 761 mmHg 73%
    04:00 +18°C° 0 mm 4 mps 761 mmHg 71%
    05:00 +19°C° 0 mm 4 mps 761 mmHg 68%
    06:00 +19°C° 0 mm 4 mps 761 mmHg 65%
    07:00 +20°C° 0 mm 4 mps 761 mmHg 63%
    08:00 +21°C° 0 mm 5 mps 761 mmHg 60%
    09:00 +21°C° 0 mm 5 mps 761 mmHg 58%
    10:00 +22°C° 0 mm 5 mps 762 mmHg 55%
    11:00 +23°C° 0 mm 5 mps 762 mmHg 52%
    12:00 +23°C° 0 mm 5 mps 761 mmHg 53%
    13:00 +23°C° 0 mm 5 mps 761 mmHg 53%
    14:00 +23°C° 0 mm 5 mps 760 mmHg 54%
    15:00 +22°C° 0 mm 5 mps 760 mmHg 56%
    16:00 +22°C° 0 mm 5 mps 760 mmHg 59%
    17:00 +21°C° 0 mm 5 mps 760 mmHg 62%
    18:00 +20°C° 0 mm 4 mps 760 mmHg 67%
    19:00 +19°C° 0 mm 4 mps 760 mmHg 72%
    20:00 +18°C° 0 mm 4 mps 761 mmHg 78%
    21:00 +18°C° 0 mm 3 mps 761 mmHg 76%
    22:00 +18°C° 0 mm 3 mps 761 mmHg 75%
    23:00 +18°C° 0 mm 3 mps 761 mmHg 73%

    20 September, Friday

    Time Temperature Precipitation Wind Pressure Humidity
    00:00 +18°C° 0.2 mm 2 mps 761 mmHg 76%
    01:00 +18°C° 0.2 mm 2 mps 761 mmHg 79%
    02:00 +17°C° 0.2 mm 2 mps 760 mmHg 81%
    03:00 +17°C° 0.7 mm 2 mps 760 mmHg 83%
    04:00 +16°C° 0.7 mm 3 mps 760 mmHg 85%
    05:00 +14°C° 0.7 mm 4 mps 760 mmHg 87%
    06:00 +14°C° 0.1 mm 4 mps 760 mmHg 83%
    07:00 +14°C° 0.1 mm 4 mps 760 mmHg 79%
    08:00 +15°C° 0.1 mm 4 mps 760 mmHg 75%
    09:00 +17°C° 0 mm 4 mps 761 mmHg 62%
    10:00 +19°C° 0 mm 5 mps 761 mmHg 49%
    11:00 +20°C° 0 mm 6 mps 761 mmHg 36%
    12:00 +21°C° 0 mm 6 mps 761 mmHg 32%
    13:00 +22°C° 0 mm 6 mps 760 mmHg 28%
    14:00 +23°C° 0 mm 6 mps 760 mmHg 24%
    15:00 +22°C° 0 mm 6 mps 760 mmHg 31%
    16:00 +21°C° 0 mm 6 mps 760 mmHg 39%
    17:00 +20°C° 0 mm 6 mps 761 mmHg 47%
    18:00 +17°C° 0 mm 5 mps 761 mmHg 51%
    19:00 +16°C° 0 mm 5 mps 762 mmHg 56%
    20:00 +14°C° 0 mm 4 mps 762 mmHg 61%
    21:00 +14°C° 0 mm 4 mps 763 mmHg 62%
    22:00 +14°C° 0 mm 4 mps 763 mmHg 62%
    23:00 +13°C° 0 mm 3 mps 763 mmHg 63%

    21 September, Saturday

    Time Temperature Precipitation Wind Pressure Humidity
    00:00 +13°C° 0 mm 3 mps 763 mmHg 62%
    01:00 +13°C° 0 mm 4 mps 764 mmHg 61%
    02:00 +13°C° 0 mm 4 mps 764 mmHg 60%
    03:00 +13°C° 0 mm 4 mps 764 mmHg 60%
    04:00 +12°C° 0 mm 5 mps 764 mmHg 60%
    05:00 +11°C° 0 mm 6 mps 765 mmHg 61%
    06:00 +13°C° 0 mm 6 mps 765 mmHg 56%
    07:00 +14°C° 0 mm 6 mps 765 mmHg 51%
    08:00 +15°C° 0 mm 6 mps 766 mmHg 46%
    09:00 +16°C° 0 mm 6 mps 766 mmHg 42%
    10:00 +17°C° 0 mm 6 mps 766 mmHg 39%
    11:00 +19°C° 0 mm 6 mps 766 mmHg 36%
    12:00 +19°C° 0 mm 6 mps 766 mmHg 35%
    13:00 +19°C° 0 mm 5 mps 766 mmHg 34%
    14:00 +19°C° 0 mm 5 mps 766 mmHg 33%
    15:00 +19°C° 0 mm 5 mps 766 mmHg 34%
    16:00 +17°C° 0 mm 5 mps 766 mmHg 35%
    17:00 +18°C° 0 mm 4 mps 765 mmHg 36%
    18:00 +15°C° 0 mm 4 mps 766 mmHg 42%
    19:00 +13°C° 0 mm 4 mps 766 mmHg 48%
    20:00 +11°C° 0 mm 3 mps 766 mmHg 54%
    21:00 +11°C° 0 mm 3 mps 766 mmHg 55%
    22:00 +11°C° 0 mm 3 mps 767 mmHg 55%
    23:00 +10°C° 0 mm 3 mps 767 mmHg 55%
    Show more